Skip Page Navigation
NASA JPL Caltech
NASA Logo - Jet Propulsion Laboratory + View the NASA Portal
+ Near-Earth Object (NEO) Program
Search JPL
JPL Home Earth Solar System Stars & Galaxies Technology
JPL Solar System Dynamics
BODIES ORBITS EPHEMERIDES TOOLS PHYSICAL DATA DISCOVERY FAQ SITE MAP
JPL Small-Body Database Browser
Search: [ help ]  
8030 Williamknight (1991 SK)
Classification: Outer Main-belt Asteroid          SPK-ID: 2008030
Ephemeris | Orbit Diagram | Orbital Elements | Physical Parameters | Discovery Circumstances ]

[ show orbit diagram ]
Orbital Elements at Epoch 2457000.5 (2014-Dec-09.0) TDB
Reference: JPL 6 (heliocentric ecliptic J2000)
 Element Value Uncertainty (1-sigma)   Units 
e .07247432222058084 7.9663e-08  
a 3.2309495990828 3.8319e-08 AU
q 2.996788716760417 2.6343e-07 AU
i 7.224041358796628 8.8527e-06 deg
node 10.99543356893353 4.8565e-05 deg
peri 325.2759428784989 6.5298e-05 deg
M 13.0258422352597 4.6041e-05 deg
tp 2456923.746707433094
(2014-Sep-23.24670743)
0.000271 JED
period 2121.259019189648
5.81
3.7738e-05
1.033e-07
d
yr
n .1697105335761991 3.0192e-09 deg/d
Q 3.465110481405183 4.1097e-08 AU
  Orbit Determination Parameters
   # obs. used (total)      1132  
   data-arc span      12380 days (33.89 yr)  
   first obs. used      1980-10-10  
   last obs. used      2014-09-02  
   planetary ephem.      DE431  
   SB-pert. ephem.      SB431-BIG16  
   condition code      0  
   fit RMS      .47223  
   data source      ORB  
   producer      Otto Matic  
   solution date      2014-Sep-12 13:52:55  

Additional Information
 Earth MOID = 1.99196 AU 
 T_jup = 3.170 
[ show covariance matrix ]

Ephemeris | Orbit Diagram | Orbital Elements | Physical Parameters | Discovery Circumstances ]

Physical Parameter Table
Parameter Symbol Value Units Sigma Reference Notes
absolute magnitude H 11.8 mag n/a PDS3 (MPC 30859)  

8030 Williamknight           Discovered 1991 Sept. 29 by R. H. McNaught at Siding Spring.
Air Force test pilot William Knight (1929-2004) was the tenth pilot to fly the X-15 and made a total of 16 flights. These included the fastest X-15 flight, which reached Mach 6.7, and another flight to 69600 meters for which he received astronaut wings.
NOTE: some special characters may not display properly (any characters within {} are an attempt to place the proper accent above a character)
Reference: 20120207/MPCPages.arcLast Updated: 2012-02-09

Alternate Designations
 1991 SK = 1980 TU12 = 1986 UF4 = 1992 WW3 
Ephemeris | Orbit Diagram | Orbital Elements | Physical Parameters | Discovery Circumstances ]
ABOUT SSD CREDITS/AWARDS PRIVACY/COPYRIGHT GLOSSARY LINKS
FirstGov 2014-Sep-22 18:15 UT
(server date/time)  
NASA Home Page
Site Manager:   Donald K. Yeomans
Webmaster  Alan B. Chamberlin